Flag for Canada Weather past 2 weeks in Cornwall, Ontario, Canada

Now
65 °F

Mild.


Feels Like: 65 °F
Forecast: 48 / 67 °F
Wind: 8 mph from North

Location: St Anicet

Current Time: Sep 30, 2014 at 4:05:54 PM

Latest Report: Sep 30, 2014 at 3:00 PM


Visibility: N/A

Pressure: 29.96 "Hg

Humidity: 69%

Dew point: 54 °F

Location of CornwallLocation

Historic Weather in Cornwall — Graph

°F

Cornwall temperature yesterday

Maximum temperature yesterday: 70 °F (at 11:00 AM)
Minimum temperature yesterday: 49 °F (at 11:00 PM)
Average temperature yesterday: 60 °F

Past Weeks' High & Low Weather Summary

 TemperatureHumidityPressure
High81 °F (Sep 27, 3:00 PM)100% (Sep 19, 5:00 AM)30.57 "Hg (Sep 19, 5:00 AM)
Low30 °F (Sep 19, 7:00 AM)34% (Sep 19, 2:00 PM)29.50 "Hg (Sep 21, 5:00 PM)
Average58 °F78%30.09 "Hg
* Reported Sep 15 3:00 PM — Sep 30 3:00 PM, Cornwall, Weather by CustomWeather, © 2014

Note: Actual official high and low records may vary slightly from our data, if they occured in-between our weather recording intervals... More about our weather records

Advertising

Cornwall weather history for previous 24 hours

 ConditionsComfort  
Time TempWeatherWind HumidityBarometerVisibility
3:00 PM
Sep 30
65 °FMild.8 mph69%29.96 "HgN/A
2:00 PM59 °FCool.8 mph79%29.98 "HgN/A
1:00 PM61 °FCool.9 mph75%29.99 "HgN/A
11:00 AM57 °FCool.8 mph78%29.99 "HgN/A
10:00 AM54 °FCool.9 mph82%30.00 "HgN/A
9:00 AM49 °FCool.6 mph94%30.00 "HgN/A
8:00 AM48 °FCool.6 mph94%29.99 "HgN/A
7:00 AM47 °FCool.5 mph95%29.98 "HgN/A
6:00 AM47 °FCool.3 mph96%29.97 "HgN/A
5:00 AM48 °FCool.6 mph94%29.97 "HgN/A
4:00 AM48 °FCool.7 mph95%29.96 "HgN/A
3:00 AM49 °FCool.8 mph94%29.96 "HgN/A
2:00 AM47 °FCool.6 mph99%29.96 "HgN/A
1:00 AM49 °FCool.9 mph93%29.96 "HgN/A
12:00 AM49 °FCool.10 mph92%29.96 "HgN/A
11:00 PM
Sep 29
49 °FCool.8 mph89%29.97 "HgN/A
10:00 PM49 °FCool.7 mph91%29.97 "HgN/A
9:00 PM50 °FCool.9 mph87%29.97 "HgN/A
8:00 PM52 °FCool.7 mph86%29.97 "HgN/A
7:00 PM53 °FCool.8 mph88%29.96 "HgN/A
6:00 PM59 °FCool.10 mph71%29.95 "HgN/A
5:00 PM62 °FMild.12 mph71%29.94 "HgN/A
4:00 PM65 °FMild.10 mph67%29.94 "HgN/A
Weather by CustomWeather, © 2014

See weather overviewHow to use our weather pages